COSMOS 1275 DEB, 13018

Orbit data source: Space-Track

COSMOS 1275 DEB, 13018 is space debris in LEO originally from a launch on Thu, 04 Jun 1981 UTC launched from the Plesetsk Missile And Space Complex (PKMTR). Debris objects in space refer to the collection of defunct objects orbiting the Earth. Examples of debris include non-operational satellites, rocket bodies, and fragments generated from explosions, collisions, or faulty payload assembly.

Loading next visibility...
Identifier
13018, 1981-053EQ
Orbit
LEO
Country
Flag of CISCIS
Related business
Manufacturer
Unknown
Mission
Spacecraft
Bus & Motor
Unknown
Mass
Unknown
Launch date (UTC)
1981-06-04 (45 years ago)
Launch vehicle
Unknown
Launch site
Plesetsk Missile And Space Complex (PKMTR)
Object type
Payload
Rocket body
Debris
Shape & HBR
Unknown shape, 0.1 m
Radar Cross Section
Small (<0.1 m²)

Expand to show TLE details & history
Last TLE update: 2 days ago

TLE from 2 days ago
0 COSMOS 1275 DEB
1 13018U 81053EQ  26118.25520707  .00001362  00000-0  96719-3 0  9993
2 13018  82.6746  42.6907 0051052  67.9735  84.0056 13.96310623238264
Epoch: 2026-04-28T06:07Z
TLE epoch observation values (Epoch: 2026-04-28T06:07:29.890Z)
Latitude
27.23485°
Longitude
-89.1909°
Altitude
906.243 km
Speed
7.403 km/s
True Right ascension
14h 35m 40s
True Declination
27° 05' 53"
Sunlit
Object was in full shadow at epoch
Visualization orbit readout
Latitude
Unknown
Longitude
Unknown
Altitude
Unknown
Speed
Unknown
Apparent Right ascension
Unknown
Apparent Declination
Unknown
Sunlit
N/A
Visualization observer readout
Local Sidereal Time
05:44:26
Azimuth
Unknown
Elevation
Unknown
Doppler factor
Unknown
Orbital elements
Apogee altitude
940.904 km
Perigee altitude
866.553 km
Semi-major axis
7,281.866 km
Eccentricity
0.00511
Inclination
82.6746°
RAAN
42.6907°
Arg. of periapsis
67.9735°
True anomaly
84.58779°
Mean anomaly
84.0056°
Eccentric anomaly
84.29666°
Mean motion
3.49284 °/min
Orbital period
103.07 mins
BSTAR
0.00096719
Loading maneuver chart data...
Computing Atmospheric mass density...
Loading historical data...
Loading historical data...
Loading historical data...
Loading historical data...
Loading historical data...
Loading historical data...
Loading historical data...

Documentation

Showing up to 5 results
|